TimeEST,TemperatureF,Dew PointF,Humidity,Sea Level PressureIn,VisibilityMPH,Wind Direction,Wind SpeedMPH,Gust SpeedMPH,PrecipitationIn,Events,Conditions,WindDirDegrees,DateUTC
12:15 AM,1.4,-5.8,72,29.90,10.0,SSW,5.8,-,N/A,,Clear,200,2014-01-25 05:15:00
12:35 AM,3.2,-4.0,72,29.88,10.0,SSW,4.6,-,N/A,,Clear,200,2014-01-25 05:35:00
12:55 AM,3.2,-5.8,66,29.87,10.0,SSW,4.6,-,N/A,,Clear,200,2014-01-25 05:55:00
1:15 AM,5.0,-5.8,61,29.86,10.0,SSW,3.5,-,N/A,,Clear,200,2014-01-25 06:15:00
1:35 AM,5.0,-5.8,61,29.85,10.0,Calm,Calm,-,N/A,,Clear,0,2014-01-25 06:35:00
1:55 AM,5.0,-5.8,61,29.84,10.0,Calm,Calm,-,N/A,,Clear,0,2014-01-25 06:55:00
2:15 AM,6.8,-4.0,61,29.83,10.0,South,3.5,-,N/A,,Clear,190,2014-01-25 07:15:00
2:35 AM,6.8,-4.0,61,29.82,10.0,SSE,4.6,-,N/A,,Clear,160,2014-01-25 07:35:00
2:55 AM,6.8,-2.2,67,29.80,10.0,South,4.6,-,N/A,,Clear,190,2014-01-25 07:55:00
3:15 AM,8.6,-2.2,62,29.79,10.0,South,4.6,-,N/A,,Clear,190,2014-01-25 08:15:00
3:35 AM,8.6,-2.2,62,29.78,10.0,South,3.5,-,N/A,,Clear,180,2014-01-25 08:35:00
3:55 AM,8.6,-2.2,62,29.77,10.0,SSE,3.5,-,N/A,,Partly Cloudy,160,2014-01-25 08:55:00
4:15 AM,8.6,-2.2,62,29.76,10.0,SSW,3.5,-,N/A,,Partly Cloudy,200,2014-01-25 09:15:00
4:35 AM,10.4,-0.4,62,29.75,10.0,South,6.9,-,N/A,,Clear,190,2014-01-25 09:35:00
4:55 AM,12.2,-2.2,53,29.74,10.0,SSW,6.9,-,N/A,,Scattered Clouds,200,2014-01-25 09:55:00
5:15 AM,12.2,-2.2,53,29.74,10.0,South,6.9,-,N/A,,Scattered Clouds,190,2014-01-25 10:15:00
5:35 AM,15.8,-0.4,49,29.73,10.0,SSW,12.7,18.4,N/A,,Scattered Clouds,200,2014-01-25 10:35:00
5:55 AM,15.8,-2.2,45,29.74,10.0,SSW,13.8,18.4,N/A,,Partly Cloudy,200,2014-01-25 10:55:00
6:15 AM,15.8,-0.4,49,29.73,10.0,South,12.7,18.4,N/A,,Mostly Cloudy,190,2014-01-25 11:15:00
6:35 AM,15.8,-0.4,49,29.73,10.0,SSW,10.4,-,N/A,,Scattered Clouds,200,2014-01-25 11:35:00
6:55 AM,15.8,-0.4,49,29.72,10.0,SSW,10.4,20.7,N/A,,Mostly Cloudy,200,2014-01-25 11:55:00
7:15 AM,17.6,-0.4,45,29.72,10.0,SSW,10.4,19.6,N/A,,Mostly Cloudy,200,2014-01-25 12:15:00
7:35 AM,17.6,-0.4,45,29.72,10.0,South,9.2,24.2,N/A,,Scattered Clouds,190,2014-01-25 12:35:00
7:55 AM,17.6,1.4,49,29.71,10.0,South,9.2,20.7,N/A,,Clear,190,2014-01-25 12:55:00
8:15 AM,19.4,1.4,46,29.70,10.0,South,11.5,21.9,N/A,,Clear,190,2014-01-25 13:15:00
8:35 AM,19.4,3.2,49,29.70,10.0,South,12.7,20.7,N/A,,Scattered Clouds,190,2014-01-25 13:35:00
8:55 AM,19.4,6.8,58,29.69,10.0,South,10.4,20.7,N/A,,Mostly Cloudy,190,2014-01-25 13:55:00
9:15 AM,21.2,8.6,58,29.68,10.0,SSW,16.1,29.9,N/A,,Overcast,200,2014-01-25 14:15:00
9:35 AM,21.2,10.4,63,29.67,10.0,SSW,16.1,25.3,N/A,,Overcast,200,2014-01-25 14:35:00
9:55 AM,23.0,10.4,59,29.66,10.0,South,8.1,23.0,N/A,,Overcast,190,2014-01-25 14:55:00
10:15 AM,23.0,12.2,63,29.65,5.0,SSW,9.2,16.1,N/A,,Overcast,200,2014-01-25 15:15:00
10:35 AM,23.0,15.8,74,29.64,3.0,South,6.9,-,N/A,,Overcast,180,2014-01-25 15:35:00
10:55 AM,24.8,15.8,69,29.61,10.0,South,5.8,-,N/A,,Overcast,180,2014-01-25 15:55:00
11:15 AM,24.8,15.8,69,29.59,10.0,SSW,8.1,-,N/A,,Overcast,210,2014-01-25 16:15:00
11:35 AM,24.8,17.6,74,29.57,10.0,SW,11.5,-,N/A,,Overcast,220,2014-01-25 16:35:00
11:55 AM,24.8,17.6,74,29.56,10.0,WSW,9.2,-,N/A,,Overcast,240,2014-01-25 16:55:00
12:15 PM,24.8,15.8,69,29.54,10.0,WSW,8.1,-,N/A,,Overcast,250,2014-01-25 17:15:00
12:35 PM,24.8,17.6,74,29.52,10.0,SW,6.9,-,N/A,,Overcast,230,2014-01-25 17:35:00
12:55 PM,24.8,17.6,74,29.50,10.0,WSW,4.6,-,N/A,,Overcast,250,2014-01-25 17:55:00
1:15 PM,24.8,17.6,74,29.49,10.0,West,3.5,-,N/A,,Overcast,270,2014-01-25 18:15:00
1:35 PM,26.6,17.6,69,29.47,3.0,Calm,Calm,-,N/A,,Overcast,0,2014-01-25 18:35:00
1:55 PM,26.6,21.2,80,29.45,2.5,SSW,5.8,-,N/A,,Mostly Cloudy,200,2014-01-25 18:55:00
2:15 PM,26.6,21.2,80,29.45,3.0,South,3.5,-,N/A,,Mostly Cloudy,180,2014-01-25 19:15:00
2:35 PM,28.4,23.0,80,29.44,4.0,South,4.6,-,N/A,,Overcast,190,2014-01-25 19:35:00
2:55 PM,28.4,23.0,80,29.42,7.0,SSE,3.5,-,N/A,,Mostly Cloudy,160,2014-01-25 19:55:00
3:15 PM,28.4,23.0,80,29.41,1.5,SE,3.5,-,N/A,,Overcast,140,2014-01-25 20:15:00
3:35 PM,26.6,24.8,93,29.40,1.5,Calm,Calm,-,N/A,,Overcast,0,2014-01-25 20:35:00
3:55 PM,26.6,24.8,93,29.39,9.0,Calm,Calm,-,N/A,,Partly Cloudy,0,2014-01-25 20:55:00
4:15 PM,26.6,24.8,93,29.38,10.0,Calm,Calm,-,N/A,,Clear,0,2014-01-25 21:15:00
4:35 PM,24.8,21.2,86,29.37,9.0,Calm,Calm,-,N/A,,Mostly Cloudy,0,2014-01-25 21:35:00
4:55 PM,24.8,23.0,93,29.36,6.0,North,5.8,-,N/A,,Mostly Cloudy,360,2014-01-25 21:55:00
5:15 PM,24.8,24.8,100,29.34,10.0,North,3.5,-,N/A,,Mostly Cloudy,10,2014-01-25 22:15:00
5:35 PM,24.8,23.0,93,29.33,9.0,NNE,3.5,-,N/A,,Scattered Clouds,30,2014-01-25 22:35:00
5:55 PM,24.8,24.8,100,29.32,10.0,NNE,4.6,-,N/A,,Partly Cloudy,20,2014-01-25 22:55:00
6:15 PM,24.8,24.8,100,29.30,10.0,NE,4.6,-,N/A,,Partly Cloudy,40,2014-01-25 23:15:00
6:35 PM,24.8,23.0,93,29.29,10.0,Calm,Calm,-,N/A,,Scattered Clouds,0,2014-01-25 23:35:00
6:55 PM,26.6,24.8,93,29.27,10.0,Calm,Calm,-,N/A,,Scattered Clouds,0,2014-01-25 23:55:00
7:15 PM,26.6,24.8,93,29.26,10.0,SSW,3.5,-,N/A,,Mostly Cloudy,200,2014-01-26 00:15:00
7:35 PM,28.4,24.8,86,29.24,10.0,Calm,Calm,-,N/A,,Mostly Cloudy,0,2014-01-26 00:35:00
7:55 PM,28.4,23.0,80,29.23,10.0,SW,3.5,-,N/A,,Mostly Cloudy,220,2014-01-26 00:55:00
8:15 PM,28.4,24.8,86,29.23,10.0,SSW,5.8,-,N/A,,Overcast,200,2014-01-26 01:15:00
8:35 PM,30.2,24.8,80,29.22,2.0,SSW,6.9,-,N/A,,Overcast,200,2014-01-26 01:35:00
8:55 PM,30.2,26.6,86,29.20,1.2,SSW,6.9,-,N/A,,Overcast,210,2014-01-26 01:55:00
9:15 PM,28.4,28.4,100,29.19,1.2,WSW,5.8,-,N/A,,Overcast,240,2014-01-26 02:15:00
9:35 PM,28.4,26.6,93,29.18,2.5,SW,6.9,-,N/A,,Overcast,230,2014-01-26 02:35:00
9:55 PM,28.4,26.6,93,29.17,2.5,SW,8.1,-,N/A,,Overcast,220,2014-01-26 02:55:00
10:15 PM,28.4,26.6,93,29.17,2.5,SW,10.4,-,N/A,,Overcast,230,2014-01-26 03:15:00
10:35 PM,26.6,24.8,93,29.16,3.0,West,8.1,16.1,N/A,,Overcast,270,2014-01-26 03:35:00
10:55 PM,26.6,23.0,86,29.15,10.0,West,8.1,-,N/A,,Overcast,260,2014-01-26 03:55:00
11:15 PM,26.6,21.2,80,29.15,10.0,WSW,8.1,-,N/A,,Overcast,240,2014-01-26 04:15:00
11:35 PM,26.6,21.2,80,29.14,10.0,WSW,8.1,-,N/A,,Overcast,250,2014-01-26 04:35:00
11:55 PM,26.6,21.2,80,29.13,10.0,West,10.4,-,N/A,,Overcast,260,2014-01-26 04:55:00